[[{"header":{"parameterUnit":"m.s-1","parameterCategory":2,"la1":30.2992,"la2":30.254,"lo1":-89.0895,"lo2":-89.0443,"dy":0.0025,"dx":0.0025,"nx":19,"ny":19,"refTime":"2026-03-18T21:00:00:Z","depth":"0","parameterNumber":2,"parameterNumberName":"U-component_of_CURRENTS"},"data":[0,0,0,0.3256,0.3253,0.307,0.3069,0.3086,0.3088,0,0,0,0,0,0,0,0,0,0,0,0.3327,0.3326,0.3257,0.3253,0.307,0.3069,0.3086,0.3088,0,0,0,0,0,0,0,0,0,0,0,0.3327,0.3326,0.3325,0.3252,0.307,0.3068,0.3086,0.3157,0,0,0,0,0,0,0,0,0,0,0.3301,0.3328,0.3326,0.3325,0.3252,0.307,0.3068,0.3157,0.3153,0.3248,0,0.323,0,0.3173,0.3096,0.3097,0,0,0,0.3232,0.3331,0.3296,0.3325,0.325,0.307,0.3146,0.3152,0.3148,0.3244,0.3229,0.3228,0.3173,0.3097,0.3098,0.3262,0.3263,0,0,0.3242,0.3282,0.3299,0.3293,0.3223,0.3152,0.3141,0.3146,0.315,0.3229,0.3227,0.3174,0.3098,0.3099,0.3261,0.3262,0,0,0,0.3285,0.329,0.3247,0.3295,0.3249,0.3148,0.3134,0.3148,0.3138,0.3226,0.3174,0.3099,0.3101,0.326,0.3261,0.3169,0,0,0,0.329,0.3316,0.3253,0.3273,0.3247,0.3159,0.3137,0.3136,0.3134,0.3174,0.3099,0.3102,0.3259,0.3261,0.3169,0.3105,0,0,0,0.3331,0.332,0.3306,0.3276,0.3205,0.3157,0.3142,0.3132,0.3106,0.3097,0.3102,0.3259,0.3261,0.317,0.3107,0.3036,0,0,0,0.3367,0.3333,0.3308,0.3282,0.3207,0.3172,0.3141,0.3124,0.3122,0.31,0.3259,0.3261,0.317,0.3109,0.3038,0.286,0.2834,0,0,0.3339,0.333,0.3321,0.3294,0.325,0.3195,0.3161,0.3147,0.3187,0.327,0.3271,0.3169,0.3108,0.3036,0.2971,0.294,0,0,0,0.3323,0.3306,0.3299,0.3268,0.3251,0.3179,0.3171,0.3171,0.3185,0.3195,0.3235,0.32,0.3156,0.3057,0.3035,0.275,0.327,0.327,0.327,0.3281,0.3285,0.3257,0.3245,0.3235,0.3194,0.3147,0.3158,0.3221,0.3227,0.3173,0.3122,0.3021,0.3001,0.2712,0.3244,0.3244,0.3243,0.3243,0.3218,0.3197,0.3211,0.3175,0.3155,0.3136,0.3117,0.3114,0.3087,0.3159,0.3121,0.3027,0.2969,0.2671,0.3238,0.3239,0.324,0.324,0.3241,0.3175,0.3161,0.3147,0.3108,0.3058,0.3046,0.2955,0.2962,0.2997,0.2956,0.2857,0.2856,0.2545,0.2943,0.2942,0.2941,0.2941,0.2941,0.294,0.3122,0.311,0.3067,0.3025,0.2983,0.2906,0.2843,0.2794,0.2726,0.2735,0.2734,0.249,0.303,0.2985,0.2931,0.2933,0.2934,0.2935,0.2935,0.3054,0.3059,0.2993,0.2947,0.2836,0.2683,0.2651,0.2482,0.2448,0.2382,0.2113,0.2613,0.2613,0.2632,0.258,0.2424,0.2424,0.2424,0.2424,0.3017,0.3014,0.2922,0.2834,0.271,0.258,0.229,0.2144,0.1925,0.1748,0.1743,0.1735,0.1769,0.1721,0.176,0.1693,0.1316,0.1314,0.1313,0.2975,0.2958,0.2873,0.2796,0.2651,0.2438,0.2085,0.171,0.137,0.1245,0.1371,0.1418,0.1396,0.1472,0.1403,0.148,0.1378,0,0]},{"header":{"parameterUnit":"m.s-1","parameterCategory":2,"la1":30.2992,"la2":30.254,"lo1":-89.0895,"lo2":-89.0443,"dy":0.0025,"dx":0.0025,"nx":19,"ny":19,"refTime":"2026-03-18T21:00:00:Z","depth":"0","parameterNumber":3,"parameterNumberName":"V-component_of_CURRENTS"},"data":[0,0,0,-0.0126,-0.0125,-0.0009,-0.0008,0.0302,0.0305,0,0,0,0,0,0,0,0,0,0,0,-0.0164,-0.0164,-0.0127,-0.0125,-0.0009,-0.0008,0.0302,0.0305,0,0,0,0,0,0,0,0,0,0,0,-0.0164,-0.0164,-0.0164,-0.0125,-0.0009,-0.0008,0.0301,0.0181,0,0,0,0,0,0,0,0,0,0,0.0051,-0.001,-0.0164,-0.0164,-0.0124,-0.0009,-0.0008,0.0174,0.0188,0.0286,0,0.0281,0,0.029,0.0326,0.0328,0,0,0,-0.0093,-0.0023,-0.0006,-0.0164,-0.0124,-0.0009,-0.0052,0.0181,0.0198,0.0306,0.0285,0.0295,0.0295,0.0328,0.033,0.0629,0.063,0,0,-0.0099,-0.0115,-0.0018,0.0004,-0.0118,-0.0056,-0.0049,0.019,0.021,0.0286,0.0302,0.03,0.0331,0.0333,0.0628,0.0629,0,0,0,-0.0139,-0.012,-0.0111,-0.0008,-0.0005,-0.0054,-0.0045,0.0199,0.0197,0.0305,0.0304,0.0332,0.0336,0.0627,0.0629,0.0594,0,0,0,-0.0141,-0.0146,-0.0115,-0.0118,-0.0012,0.0078,-0.0041,0.018,0.0207,0.0302,0.0333,0.034,0.0626,0.0628,0.0593,0.0601,0,0,0,-0.0165,-0.0147,-0.0147,-0.0121,-0.0087,0.0073,0.0086,0.0186,0.0206,0.0328,0.034,0.0626,0.0628,0.0592,0.0599,0.0711,0,0,0,-0.0166,-0.016,-0.0147,-0.0124,-0.0089,-0.0001,0.0084,0.0174,0.0269,0.0334,0.0626,0.0629,0.0592,0.0598,0.0708,0.0745,0.076,0,0,-0.0159,-0.0159,-0.0144,-0.0131,-0.0069,-0.0013,0.0111,0.0257,0.0344,0.0563,0.0569,0.0594,0.0599,0.071,0.0864,0.0876,0,0,0,-0.0142,-0.0129,-0.0109,-0.0069,-0.0011,0.0095,0.0211,0.0299,0.048,0.0404,0.0646,0.0653,0.0722,0.074,0.0751,0.0695,0.0638,0.0638,0.0638,-0.0118,-0.0096,-0.005,-0.0003,0.0061,0.0192,0.0303,0.046,0.0512,0.0589,0.0661,0.0775,0.0792,0.0801,0.0741,0.0693,0.0693,0.0693,0.0693,-0.0084,-0.0055,0.0001,0.0048,0.0146,0.0257,0.0453,0.0509,0.0725,0.0709,0.0779,0.0748,0.081,0.0743,0.0692,0.0692,0.0692,0.0692,0.0692,-0.0076,-0.0057,-0.0029,0.0058,0.0177,0.0299,0.0477,0.0593,0.0727,0.0792,0.0886,0.0887,0.0803,0.0839,0.084,0.084,0.0841,0.0841,0.0842,-0.0082,-0.0049,-0.0006,0.0077,0.0146,0.0275,0.0496,0.0637,0.0824,0.0898,0.09,0.085,0.0822,0.0786,0.085,0.0848,0.0847,0.0846,0.0846,-0.0052,-0.0059,0.0001,0.0054,0.0205,0.0345,0.051,0.0794,0.0947,0.1053,0.0983,0.099,0.1029,0.1021,0.0994,0.1108,0.1108,0.1108,0.1108,-0.0033,-0.0033,0.005,0.013,0.0251,0.0393,0.0643,0.0865,0.1038,0.1078,0.1057,0.0979,0.0971,0.1001,0.0994,0.0965,0.1068,0.1068,0.1068,0.0023,0.0026,0.01,0.0153,0.0284,0.046,0.0693,0.0892,0.1052,0.1057,0.0973,0.0975,0.0845,0.0837,0.087,0.0864,0.0811,0,0]}],[{"header":{"parameterUnit":"m.s-1","parameterCategory":2,"la1":30.2992,"la2":30.254,"lo1":-89.0895,"lo2":-89.0443,"dy":0.0025,"dx":0.0025,"nx":19,"ny":19,"refTime":"2026-03-18T21:00:00:Z","depth":"2","parameterNumber":2,"parameterNumberName":"U-component_of_CURRENTS"},"data":[0,0,0,0.0398,0.0402,0.0607,0.0608,0.0685,0.0685,0,0,0,0,0,0,0,0,0,0,0,0.0281,0.0282,0.0397,0.0403,0.0607,0.0608,0.0685,0.0685,0,0,0,0,0,0,0,0,0,0,0,0.0281,0.0281,0.0282,0.0404,0.0607,0.0608,0.0685,0.0574,0,0,0,0,0,0,0,0,0,0,0.0398,0.0369,0.0281,0.0282,0.0405,0.0607,0.0608,0.0571,0.0581,0.0542,0,0.0552,0,0.0641,0.0687,0.0687,0,0,0,0.0395,0.0361,0.0375,0.0282,0.0407,0.0607,0.0513,0.0578,0.0589,0.0554,0.0555,0.0561,0.0642,0.0687,0.0687,0.0803,0.0804,0,0,0.0383,0.0362,0.0368,0.0381,0.0429,0.0506,0.0519,0.0587,0.0604,0.0555,0.0564,0.0643,0.0687,0.0687,0.0802,0.0804,0,0,0,0.0356,0.0354,0.0371,0.0375,0.0439,0.0512,0.0527,0.0602,0.0595,0.0566,0.0644,0.0687,0.0688,0.0801,0.0803,0.0801,0,0,0,0.0349,0.0339,0.0365,0.0361,0.0438,0.0565,0.054,0.0589,0.0603,0.0644,0.0687,0.0688,0.08,0.0802,0.0799,0.0764,0,0,0,0.0277,0.0335,0.0338,0.0358,0.0453,0.0565,0.0567,0.0595,0.0649,0.0687,0.0688,0.0799,0.0802,0.0796,0.0762,0.0812,0,0,0,0.0275,0.0295,0.0337,0.0379,0.045,0.0529,0.0568,0.065,0.0682,0.0688,0.08,0.0803,0.0796,0.0761,0.081,0.0615,0.0608,0,0,0.0296,0.0298,0.0316,0.0359,0.0419,0.0503,0.0597,0.0661,0.0712,0.0759,0.0764,0.08,0.0762,0.0811,0.0765,0.0752,0,0,0,0.032,0.0335,0.0354,0.0409,0.0459,0.0546,0.0639,0.0695,0.0804,0.075,0.0853,0.083,0.086,0.0741,0.0733,0.0815,0.0815,0.0814,0.0814,0.0376,0.0377,0.0408,0.0426,0.0473,0.0592,0.0667,0.0773,0.0798,0.0878,0.0869,0.0956,0.0832,0.0823,0.0935,0.0935,0.0935,0.0935,0.0935,0.0416,0.0433,0.0436,0.0467,0.0513,0.059,0.0713,0.0781,0.0911,0.0925,0.0957,0.0795,0.0812,0.0936,0.0936,0.0936,0.0936,0.0935,0.0935,0.0463,0.0462,0.0472,0.0491,0.0538,0.0604,0.0676,0.0781,0.0903,0.0947,0.0855,0.0852,0.0921,0.0985,0.0985,0.0986,0.0986,0.0986,0.0986,0.0505,0.0502,0.0504,0.0516,0.0516,0.0548,0.0662,0.0724,0.0784,0.0827,0.0827,0.0973,0.0971,0.0927,0.0987,0.0987,0.0987,0.0987,0.0987,0.055,0.0541,0.0526,0.0517,0.0484,0.0488,0.0552,0.0598,0.069,0.0687,0.0775,0.0779,0.0759,0.0763,0.0715,0.0718,0.0718,0.0718,0.0718,0.0576,0.0571,0.0523,0.0468,0.042,0.0446,0.0461,0.0472,0.0543,0.0485,0.0496,0.043,0.0444,0.0405,0.0418,0.0363,0.0274,0.0274,0.0273,0.0589,0.0563,0.0518,0.0444,0.0368,0.0402,0.0407,0.038,0.0252,0.0263,0.0496,0.0673,0.0602,0.0615,0.0575,0.0588,0.0508,0,0]},{"header":{"parameterUnit":"m.s-1","parameterCategory":2,"la1":30.2992,"la2":30.254,"lo1":-89.0895,"lo2":-89.0443,"dy":0.0025,"dx":0.0025,"nx":19,"ny":19,"refTime":"2026-03-18T21:00:00:Z","depth":"2","parameterNumber":3,"parameterNumberName":"V-component_of_CURRENTS"},"data":[0,0,0,-0.0087,-0.0087,-0.0075,-0.0075,0.0078,0.0079,0,0,0,0,0,0,0,0,0,0,0,-0.0068,-0.0068,-0.0087,-0.0087,-0.0075,-0.0075,0.0078,0.0079,0,0,0,0,0,0,0,0,0,0,0,-0.0068,-0.0068,-0.0068,-0.0087,-0.0075,-0.0075,0.0077,0.004,0,0,0,0,0,0,0,0,0,0,0.0014,-0.0031,-0.0068,-0.0068,-0.0087,-0.0075,-0.0075,0.0037,0.0043,0.0103,0,0.0101,0,0.0076,0.009,0.0091,0,0,0,-0.0061,-0.0037,-0.0008,-0.0068,-0.0088,-0.0075,-0.0073,0.0039,0.0046,0.0111,0.0103,0.0107,0.0079,0.0091,0.0092,0.0318,0.0319,0,0,-0.0062,-0.0085,-0.0012,-0.0004,-0.0086,-0.0074,-0.0073,0.0042,0.0036,0.0103,0.011,0.0081,0.0092,0.0094,0.0317,0.0319,0,0,0,-0.0081,-0.0086,-0.0062,-0.0008,-0.0027,-0.0074,-0.0073,0.0031,0.0046,0.0111,0.0083,0.0093,0.0095,0.0316,0.0318,0.0324,0,0,0,-0.008,-0.0099,-0.0063,-0.0079,-0.0031,-0.0028,-0.0087,0.0039,0.0049,0.0082,0.0093,0.0097,0.0314,0.0317,0.032,0.0337,0,0,0,-0.0068,-0.0099,-0.0092,-0.008,-0.0087,-0.003,-0.001,0.004,0.0032,0.0091,0.0097,0.0313,0.0316,0.0318,0.0332,0.045,0,0,0,-0.0097,-0.0077,-0.0093,-0.007,-0.0087,-0.0024,-0.0012,0.0017,0.0063,0.0094,0.0314,0.0317,0.0317,0.0329,0.0446,0.0383,0.0398,0,0,-0.0077,-0.0076,-0.0054,-0.0067,-0.002,-0.0024,0.0064,0.0108,0.0142,0.0287,0.0292,0.0322,0.0332,0.0449,0.0555,0.0564,0,0,0,-0.0049,-0.0038,-0.0023,-0.0008,0.003,0.009,0.0115,0.0168,0.0276,0.0177,0.0381,0.0389,0.0462,0.0417,0.0426,0.0332,0.0331,0.0331,0.0331,-0.0064,-0.0026,0.0014,0.0066,0.0109,0.0174,0.0256,0.0348,0.0339,0.0399,0.0437,0.0589,0.0542,0.0547,0.048,0.048,0.048,0.048,0.048,-0.0029,0.0003,0.005,0.0095,0.017,0.0241,0.0404,0.0424,0.0591,0.0533,0.0603,0.0478,0.0556,0.0482,0.0482,0.0481,0.0481,0.0481,0.0481,-0.0047,-0.0016,-0.0002,0.0076,0.0168,0.0266,0.0436,0.0523,0.0614,0.0682,0.0676,0.0674,0.0597,0.0714,0.0715,0.0716,0.0716,0.0716,0.0717,-0.007,-0.0037,-0.0013,0.0065,0.012,0.024,0.0443,0.0585,0.0708,0.0716,0.0716,0.067,0.0663,0.0615,0.0726,0.0725,0.0723,0.0722,0.0722,-0.0053,-0.0073,-0.0023,0.0015,0.0168,0.0325,0.0492,0.0729,0.0845,0.0919,0.0773,0.0768,0.0778,0.077,0.0729,0.0863,0.0863,0.0863,0.0863,-0.006,-0.0058,-0.0002,0.008,0.0226,0.0386,0.0636,0.0763,0.0835,0.0736,0.0742,0.0628,0.0625,0.0621,0.0616,0.0569,0.0662,0.0662,0.0661,-0.0036,-0.0028,0.0019,0.0091,0.0262,0.047,0.0689,0.0736,0.0597,0.0652,0.0689,0.0853,0.0694,0.0687,0.0684,0.0675,0.06,0,0]}],[{"header":{"parameterUnit":"m.s-1","parameterCategory":2,"la1":30.2992,"la2":30.254,"lo1":-89.0895,"lo2":-89.0443,"dy":0.0025,"dx":0.0025,"nx":19,"ny":19,"refTime":"2026-03-18T21:00:00:Z","depth":"4","parameterNumber":2,"parameterNumberName":"U-component_of_CURRENTS"},"data":[0,0,0,-0.0589,-0.0589,-0.0623,-0.0623,-0.0578,-0.0577,0,0,0,0,0,0,0,0,0,0,0,-0.0574,-0.0574,-0.0589,-0.0589,-0.0623,-0.0623,-0.0578,-0.0577,0,0,0,0,0,0,0,0,0,0,0,-0.0574,-0.0574,-0.0574,-0.059,-0.0623,-0.0623,-0.0578,-0.0576,0,0,0,0,0,0,0,0,0,0,-0.0555,-0.0577,-0.0574,-0.0574,-0.059,-0.0623,-0.0623,-0.0577,-0.0576,-0.0536,0,-0.0539,0,-0.0554,-0.0572,-0.0571,0,0,0,-0.0594,-0.0579,-0.0561,-0.0574,-0.059,-0.0623,-0.0609,-0.0577,-0.0576,-0.0535,-0.0538,-0.0537,-0.0553,-0.0571,-0.0571,-0.0464,-0.0464,0,0,-0.0592,-0.0604,-0.0562,-0.056,-0.0592,-0.0608,-0.061,-0.0577,-0.0587,-0.0538,-0.0537,-0.0552,-0.0571,-0.057,-0.0465,-0.0464,0,0,0,-0.0584,-0.0603,-0.0589,-0.0561,-0.0573,-0.0609,-0.0611,-0.0589,-0.0577,-0.0537,-0.0551,-0.057,-0.0569,-0.0465,-0.0465,-0.0402,0,0,0,-0.0583,-0.0597,-0.0588,-0.0599,-0.0574,-0.06,-0.0623,-0.0579,-0.0576,-0.0552,-0.057,-0.0568,-0.0466,-0.0465,-0.0405,-0.0411,0,0,0,-0.0574,-0.0598,-0.0593,-0.0599,-0.0609,-0.0601,-0.0589,-0.058,-0.0584,-0.0571,-0.0568,-0.0466,-0.0465,-0.0408,-0.0415,-0.0532,0,0,0,-0.0595,-0.0605,-0.0594,-0.0616,-0.0609,-0.0622,-0.059,-0.0607,-0.0602,-0.057,-0.0466,-0.0465,-0.0409,-0.0417,-0.0532,-0.0458,0,0,0,-0.0618,-0.0609,-0.062,-0.061,-0.0623,-0.0619,-0.0606,-0.0584,-0.0558,-0.0473,-0.0471,-0.0404,-0.0415,-0.0532,-0.0378,0,0,0,0,-0.0634,-0.0633,-0.0638,-0.0645,-0.0648,-0.0615,-0.0611,-0.0568,-0.0478,-0.0546,-0.0394,-0.0404,-0.0481,-0.0434,-0.0458,-0.0458,-0.0458,-0.0459,-0.0459,-0.0662,-0.0658,-0.0671,-0.0657,-0.0648,-0.0611,-0.0572,-0.0499,-0.0469,-0.0407,-0.0344,-0.0378,-0.0316,-0.0317,-0.0317,-0.0317,-0.0316,-0.0316,-0.0316,-0.0661,-0.0657,-0.0654,-0.0654,-0.0616,-0.0567,-0.0467,-0.0421,-0.0363,-0.0296,-0.0374,-0.0354,-0.031,-0.0311,-0.0312,-0.0313,-0.0313,-0.0313,-0.0314,-0.0648,-0.0646,-0.0658,-0.0643,-0.0564,-0.048,-0.042,-0.0333,-0.0324,-0.0336,-0.0379,-0.0394,-0.0419,-0.039,-0.0391,-0.0391,-0.0392,-0.0392,-0.0393,-0.0618,-0.0636,-0.064,-0.0604,-0.0558,-0.0472,-0.0382,-0.0407,-0.0397,-0.0339,-0.0347,-0.0407,-0.0405,-0.0426,-0.04,-0.0399,-0.0398,-0.0397,-0.0397,-0.0578,-0.0609,-0.0614,-0.0607,-0.053,-0.0461,-0.0439,-0.0436,-0.0513,-0.0527,-0.0389,-0.0387,-0.0443,-0.0442,-0.0467,-0.0452,-0.0451,-0.045,0,-0.0556,-0.0571,-0.0593,-0.0577,-0.0526,-0.0454,-0.0474,-0.0511,-0.0489,-0.0421,-0.0576,-0.042,-0.0416,-0.0481,-0.0478,-0.0507,0,0,0,-0.053,-0.0565,-0.0568,-0.0584,-0.0487,-0.0455,-0.0466,-0.0427,-0.0464,-0.0487,-0.0427,-0.0433,-0.0499,-0.0423,-0.0508,-0.0505,-0.0548,0,0]},{"header":{"parameterUnit":"m.s-1","parameterCategory":2,"la1":30.2992,"la2":30.254,"lo1":-89.0895,"lo2":-89.0443,"dy":0.0025,"dx":0.0025,"nx":19,"ny":19,"refTime":"2026-03-18T21:00:00:Z","depth":"4","parameterNumber":3,"parameterNumberName":"V-component_of_CURRENTS"},"data":[0,0,0,0.0396,0.0397,0.043,0.043,0.0441,0.0441,0,0,0,0,0,0,0,0,0,0,0,0.0368,0.0369,0.0396,0.0397,0.043,0.043,0.0441,0.0441,0,0,0,0,0,0,0,0,0,0,0,0.0368,0.0369,0.0369,0.0398,0.043,0.043,0.0441,0.042,0,0,0,0,0,0,0,0,0,0,0.039,0.0385,0.0368,0.0369,0.0398,0.043,0.043,0.0419,0.0421,0.0423,0,0.043,0,0.0451,0.0443,0.0443,0,0,0,0.038,0.0383,0.0389,0.0369,0.0399,0.043,0.041,0.042,0.0422,0.0426,0.043,0.0431,0.0451,0.0443,0.0443,0.042,0.0419,0,0,0.0378,0.0377,0.0387,0.039,0.041,0.0409,0.0412,0.0422,0.0427,0.043,0.0432,0.0451,0.0443,0.0443,0.042,0.0419,0,0,0,0.0385,0.0375,0.0381,0.0389,0.0406,0.0411,0.0413,0.0426,0.0427,0.0432,0.0451,0.0443,0.0444,0.042,0.042,0.0416,0,0,0,0.0383,0.0381,0.038,0.038,0.0406,0.0425,0.0417,0.0425,0.0428,0.0451,0.0443,0.0444,0.0421,0.042,0.0417,0.0413,0,0,0,0.0366,0.038,0.0383,0.038,0.0404,0.0425,0.0426,0.0426,0.0441,0.0443,0.0444,0.0421,0.042,0.0418,0.0415,0.0323,0,0,0,0.0364,0.0363,0.0383,0.0382,0.0404,0.041,0.0426,0.0458,0.0465,0.0443,0.0421,0.042,0.0419,0.0416,0.0326,0.03,0,0,0,0.0356,0.0362,0.0358,0.0377,0.037,0.0404,0.0395,0.0432,0.044,0.0414,0.0413,0.0417,0.0415,0.0324,0.0239,0,0,0,0,0.0351,0.0348,0.0348,0.0353,0.0365,0.0373,0.0415,0.0405,0.0402,0.0443,0.0396,0.0395,0.0337,0.0329,0.0415,0.0415,0.0415,0.0415,0.0415,0.0328,0.0329,0.0318,0.0326,0.034,0.0361,0.0344,0.0336,0.0379,0.0372,0.0377,0.0286,0.0279,0.036,0.036,0.036,0.036,0.036,0.036,0.0292,0.0282,0.0294,0.0316,0.0331,0.037,0.0317,0.0333,0.0264,0.0326,0.0269,0.031,0.0359,0.0359,0.036,0.036,0.036,0.036,0.036,0.0277,0.027,0.0304,0.0336,0.0381,0.0427,0.0308,0.031,0.0277,0.0223,0.0186,0.0251,0.0265,0.0206,0.0205,0.0205,0.0205,0.0204,0.0204,0.0253,0.0255,0.031,0.0366,0.0423,0.0426,0.0335,0.0211,0.0182,0.016,0.0232,0.0233,0.0238,0.0253,0.0198,0.0199,0.02,0.02,0.0201,0.0212,0.0236,0.0306,0.0358,0.0366,0.031,0.0233,0.0072,-0.0072,-0.0106,0.0082,0.009,0.0072,0.008,0.009,-0.0016,-0.0017,-0.0017,0,0.0183,0.0195,0.0256,0.0261,0.0193,0.0168,-0.0052,-0.0161,-0.0122,-0.0058,-0.0118,0.0098,0.0104,0.0087,0.0093,0.0105,0,0,0,0.0129,0.0174,0.0195,0.0197,0.0111,-0.0076,-0.0134,-0.015,-0.0054,-0.0183,-0.0032,-0.0028,-0.002,0.0178,0.0168,0.0174,0.0197,0,0]}]]